Regional Weather Roundup
Issued by NWS

Home | Current Version | Previous Version | Graphics & Text | Print | Product List | Glossary On
Versions: 1 2 3 4 5 6 7 8 9 10 11 12 13 14 15 16 17 18 19 20 21 22 23 24 25 26 27 28 29 30 31 32 33 34 35 36 37 38 39 40 41 42 43 44 45 46 47 48 49 50
000
ASUS45 KCYS 201810
RWRWY

WYOMING REGIONAL WEATHER ROUNDUP
NATIONAL WEATHER SERVICE CHEYENNE WY
1200 PM MDT MON APR 20 2015

NOTE:  "FAIR" INDICATES FEW OR NO CLOUDS BELOW 12,000 FEET
WITH NO SIGNIFICANT WEATHER AND/OR OBSTRUCTIONS TO VISIBILITY.

WYZ001-201900-
YELLOWSTONE NATIONAL PARK

CITY           SKY/WX    TMP DP  RH WIND       PRES   REMARKS
LK YELLOWSTONE   N/A     38  18  44 VRB3      30.04S
6HR MIN TEMP:  21; 6HR MAX TEMP:  38;

W YELLOWSTONE  NOT AVBL

$$
WYZ002>013-054>058-071-098>099-201900-
NORTHERN WYOMING

CITY           SKY/WX    TMP DP  RH WIND       PRES   REMARKS
JACKSON        FAIR      50  23  34 S6        29.99F
CODY           FAIR      48  25  40 N8        29.98F
GREYBULL       FAIR      54  18  24 NW8       29.97F
6HR MIN TEMP:  32; 6HR MAX TEMP:  54;

WORLAND        FAIR      53  20  27 N9G20     29.97F
6HR MIN TEMP:  28; 6HR MAX TEMP:  53;

SHERIDAN       FAIR      52  25  35 N21G31    29.94F
6HR MIN TEMP:  22; 6HR MAX TEMP:  52;

BUFFALO          N/A     50  20  30 N23       29.94F
GILLETTE       PTSUNNY   47  19  33 NW22G32   29.93F
6HR MIN TEMP:  26; 6HR MAX TEMP:  49;

HULETT         MOCLDY    45  18  33 NW14G23   29.93F
NEWCASTLE      FAIR      43  18  36 NW14G30   29.94F

$$
WYZ014>020-022>026-101>103-201900-
CENTRAL WYOMING

CITY           SKY/WX    TMP DP  RH WIND       PRES   REMARKS
BIG PINEY      FAIR      49  24  37 CALM      30.00F
6HR MIN TEMP:  23; 6HR MAX TEMP:  49;

PINEDALE       FAIR      46  19  34 W15G21    30.00F
DUBOIS         FAIR      46   7  19 NW17G24   29.96S
LANDER         FAIR      48  25  40 VRB3      29.96F
6HR MIN TEMP:  29; 6HR MAX TEMP:  50;

RIVERTON       FAIR      48  26  42 E6        29.99F
6HR MIN TEMP:  27; 6HR MAX TEMP:  48;

CASPER         FAIR      48  25  40 W15G23    29.97F
6HR MIN TEMP:  28; 6HR MAX TEMP:  49;

DOUGLAS        CLOUDY    46  24  42 NW16      29.97F
6HR MIN TEMP:  28; 6HR MAX TEMP:  46;


$$
WYZ021-027>030-104>119-201900-
SOUTHERN WYOMING

CITY           SKY/WX    TMP DP  RH WIND       PRES   REMARKS
EVANSTON       FAIR      52  22  30 VRB3      30.00F
6HR MIN TEMP:  30; 6HR MAX TEMP:  54;

KEMMERER       FAIR      52  23  32 W13       30.01F
FORT BRIDGER   CLEAR     54  28  37 W5        30.03F
ROCK SPRINGS   FAIR      45  32  60 VRB6      30.01F
6HR MIN TEMP:  28; 6HR MAX TEMP:  45;

DIXON          CLOUDY    45  33  62 SW9       30.04S
RAWLINS        FAIR      42  29  59 W9        30.00F
6HR MIN TEMP:  25; 6HR MAX TEMP:  42;

SARATOGA       FAIR      36  30  80 MISG      30.02F
LARAMIE        CLOUDY    25  24  96 SW6       29.98F FOG     WCI  18
6HR MIN TEMP:  21; 6HR MAX TEMP:  25;

CHEYENNE       FAIR      43  21  41 NW21G30   29.96F
6HR MIN TEMP:  26; 6HR MAX TEMP:  43;

TORRINGTON     PTSUNNY   47  24  40 NW12G21   29.95F
6HR MIN TEMP:  29; 6HR MAX TEMP:  50;

PINE BLUFFS    MOCLDY    46  23  39 NW18G24   29.97F

$$


USA.gov is the U.S. government's official web portal to all federal, state and local government web resources and services.